TimeBST,TemperatureF,Dew PointF,Humidity,Sea Level PressureIn,VisibilityMPH,Wind Direction,Wind SpeedMPH,Gust SpeedMPH,PrecipitationIn,Events,Conditions,WindDirDegrees,DateUTC
12:20 AM,41.0,39.2,93,30.57,3.7,SW,3.5,-,N/A,,Unknown,230,2012-03-27 23:20:00
12:50 AM,39.2,35.6,87,30.57,3.7,WSW,2.3,-,N/A,,Unknown,250,2012-03-27 23:50:00
1:20 AM,39.2,37.4,93,30.57,3.1,SW,2.3,-,N/A,,Haze,230,2012-03-28 00:20:00
1:50 AM,39.2,37.4,93,30.57,-9999.0,WSW,3.5,-,N/A,,Haze,240,2012-03-28 00:50:00
2:20 AM,37.4,35.6,93,30.57,2.5,WSW,2.3,-,N/A,,Haze,250,2012-03-28 01:20:00
2:50 AM,37.4,37.4,100,30.57,1.4,Calm,Calm,-,N/A,,Mist,0,2012-03-28 01:50:00
3:20 AM,37.4,37.4,100,30.57,2.8,Calm,Calm,-,N/A,,Mist,0,2012-03-28 02:20:00
3:50 AM,35.6,35.6,100,30.57,-9999.0,Calm,Calm,-,N/A,Fog,Fog,0,2012-03-28 02:50:00
4:20 AM,35.6,35.6,100,30.54,0.9,WSW,2.3,-,N/A,,Mist,250,2012-03-28 03:20:00
4:50 AM,35.6,35.6,100,30.54,1.1,West,3.5,-,N/A,,Mist,280,2012-03-28 03:50:00
5:20 AM,35.6,35.6,100,30.54,3.7,SW,2.3,-,N/A,Fog,Shallow Fog,230,2012-03-28 04:20:00
5:50 AM,33.8,33.8,100,30.54,-9999.0,Calm,Calm,-,N/A,Fog,Shallow Fog,0,2012-03-28 04:50:00
6:20 AM,33.8,33.8,100,30.54,2.5,Calm,Calm,-,N/A,Fog,Shallow Fog,0,2012-03-28 05:20:00
6:50 AM,33.8,33.8,100,30.54,2.2,Calm,Calm,-,N/A,Fog,Patches of Fog,0,2012-03-28 05:50:00
7:20 AM,33.8,33.8,100,30.54,2.2,SSW,2.3,-,N/A,,Partly Cloudy,200,2012-03-28 06:20:00
7:50 AM,33.8,33.8,100,30.54,1.9,NW,3.5,-,N/A,Fog,Shallow Fog,310,2012-03-28 06:50:00
8:20 AM,35.6,35.6,100,30.54,-9999.0,Variable,2.3,-,N/A,,Mist,0,2012-03-28 07:20:00
8:50 AM,39.2,39.2,100,30.54,2.5,SW,3.5,-,N/A,,Mist,220,2012-03-28 07:50:00
9:20 AM,44.6,42.8,93,30.54,2.8,WSW,2.3,-,N/A,,Mist,250,2012-03-28 08:20:00
9:50 AM,46.4,44.6,93,30.54,3.1,WSW,3.5,-,N/A,,Haze,250,2012-03-28 08:50:00
10:20 AM,50.0,44.6,82,30.54,4.3,West,4.6,-,N/A,,Unknown,260,2012-03-28 09:20:00
10:50 AM,53.6,46.4,77,30.54,5.0,West,5.8,-,N/A,,Unknown,270,2012-03-28 09:50:00
11:20 AM,57.2,46.4,67,30.54,5.6,West,5.8,-,N/A,,Unknown,260,2012-03-28 10:20:00
11:50 AM,60.8,48.2,63,30.54,6.2,Variable,3.5,-,N/A,,Unknown,0,2012-03-28 10:50:00
12:20 PM,62.6,46.4,55,30.54,-9999.0,WNW,8.1,-,N/A,,Clear,290,2012-03-28 11:20:00
12:50 PM,64.4,42.8,45,30.51,-9999.0,West,11.5,-,N/A,,Clear,280,2012-03-28 11:50:00
1:20 PM,64.4,42.8,45,30.51,-9999.0,WNW,11.5,-,N/A,,Clear,300,2012-03-28 12:20:00
1:50 PM,64.4,42.8,45,30.51,-9999.0,WNW,11.5,-,N/A,,Clear,300,2012-03-28 12:50:00
2:20 PM,66.2,42.8,43,30.51,-9999.0,WNW,12.7,-,N/A,,Clear,290,2012-03-28 13:20:00
2:50 PM,66.2,41.0,40,30.48,-9999.0,WNW,11.5,-,N/A,,Clear,290,2012-03-28 13:50:00
3:20 PM,66.2,39.2,37,30.48,-9999.0,WNW,10.4,-,N/A,,Clear,290,2012-03-28 14:20:00
3:50 PM,64.4,39.2,40,30.48,-9999.0,WNW,11.5,-,N/A,,Clear,290,2012-03-28 14:50:00
4:20 PM,64.4,39.2,40,30.48,-9999.0,WNW,12.7,-,N/A,,Clear,300,2012-03-28 15:20:00
4:50 PM,62.6,37.4,39,30.45,-9999.0,WNW,12.7,-,N/A,,Clear,290,2012-03-28 15:50:00
5:20 PM,62.6,39.2,42,30.45,-9999.0,West,11.5,-,N/A,,Clear,280,2012-03-28 16:20:00
5:50 PM,62.6,37.4,39,30.45,-9999.0,West,8.1,-,N/A,,Clear,270,2012-03-28 16:50:00
6:20 PM,60.8,39.2,45,30.45,-9999.0,West,8.1,-,N/A,,Clear,280,2012-03-28 17:20:00
6:50 PM,59.0,37.4,45,30.45,-9999.0,West,5.8,-,N/A,,Clear,280,2012-03-28 17:50:00
7:20 PM,55.4,39.2,54,30.48,-9999.0,West,6.9,-,N/A,,Clear,270,2012-03-28 18:20:00
7:50 PM,53.6,37.4,54,30.48,-9999.0,West,5.8,-,N/A,,Clear,270,2012-03-28 18:50:00
8:20 PM,55.4,37.4,51,30.48,-9999.0,West,11.5,-,N/A,,Clear,280,2012-03-28 19:20:00
8:50 PM,53.6,37.4,54,30.48,-9999.0,West,6.9,-,N/A,,Clear,260,2012-03-28 19:50:00
9:20 PM,51.8,37.4,58,30.48,-9999.0,Calm,Calm,-,N/A,,Clear,0,2012-03-28 20:20:00
9:50 PM,50.0,37.4,62,30.48,-9999.0,SW,8.1,-,N/A,,Clear,230,2012-03-28 20:50:00
10:20 PM,46.4,35.6,66,30.48,-9999.0,WSW,6.9,-,N/A,,Clear,250,2012-03-28 21:20:00
10:50 PM,46.4,35.6,66,30.48,-9999.0,WSW,9.2,-,N/A,,Clear,240,2012-03-28 21:50:00
11:20 PM,48.2,35.6,62,30.45,-9999.0,WSW,6.9,-,N/A,,Clear,240,2012-03-28 22:20:00
11:50 PM,46.4,35.6,66,30.45,-9999.0,WSW,8.1,-,N/A,,Clear,250,2012-03-28 22:50:00